Ontario, CA

6:18 AM PDT on June 22, 2017 (GMT -0700)
Ontario International

Weather History for KONT - September, 2013

Change the Weather History Date:

Sunday, September 15, 2013

  Actual Average Record
Temperature  
Mean Temperature 84 °F 76 °F  
Max Temperature 101 °F 90 °F 107 °F (2014)
Min Temperature 67 °F 63 °F 56 °F (2005)
Degree Days  
Heating Degree Days 0 0  
Month to date heating degree days 0 0  
Since 1 July heating degree days 0 0  
Cooling Degree Days 19 11  
Month to date cooling degree days 279 190  
Year to date cooling degree days 1752 1413  
Growing Degree Days 34 (Base 50)    
Moisture  
Dew Point 52 °F    
Average Humidity 40    
Maximum Humidity 63    
Minimum Humidity 16    
Precipitation  
Precipitation 0.00 in 0.01 in 1.25 in (2015)
Month to date precipitation T 0.10  
Year to date precipitation 2.83 10.70  
Since 1 July precipitation 0.04  
Snow  
Snow 0.00 in - - ()
Month to date snowfall 0.0  
Year to date snowfall 0.0  
Snow Depth 0.00 in    
Sea Level Pressure  
Sea Level Pressure 29.69 in    
Wind  
Wind Speed 5 mph (West)    
Max Wind Speed 17 mph    
Max Gust Speed 24 mph    
Visibility 10 miles    
Events      
T = Trace of Precipitation, MM = Missing Value Source: NWS Daily Summary

Daily Weather History Graph

Daily Weather History Graph

Search for Another Location

Airport or City:

Trip Planner

Search our weather history database for the weather conditions in past years. The results will help you decide how hot, cold, wet, or windy it might be!

Date:

Astronomy

Sep. 15, 2013 Rise Set
Actual Time 6:33 AM PDT 6:56 PM PDT
Civil Twilight 6:08 AM PDT 7:21 PM PDT
Nautical Twilight 5:39 AM PDT 7:50 PM PDT
Astronomical Twilight 5:09 AM PDT 8:20 PM PDT
Moon 4:19 PM PDT (9/15) 2:26 AM PDT (9/15)
Length of Visible Light 13h 12m
Length of Day
12h 22m
Waxing Gibbous, 83% of the Moon is Illuminated
Sep 15
Waxing Gibbous
Sep 19
Full
Sep 26
Last Quarter
Oct 4
New
Oct 11
First Quarter

Hourly Weather History & Observations

Time (PDT) Temp. Heat Index Dew Point Humidity Pressure Visibility Wind Dir Wind Speed Gust Speed Precip Events Conditions
12:53 AM 73.9 °F - 52.0 °F 46% 29.65 in 10.0 mi Calm Calm - N/A   Clear
1:53 AM 73.0 °F - 53.1 °F 49% 29.65 in 10.0 mi Calm Calm - N/A   Clear
2:53 AM 71.1 °F - 54.0 °F 55% 29.66 in 10.0 mi SSW 3.5 mph - N/A   Clear
3:53 AM 70.0 °F - 55.0 °F 59% 29.66 in 10.0 mi North 4.6 mph - N/A   Clear
4:53 AM 69.1 °F - 55.0 °F 61% 29.68 in 10.0 mi Calm Calm - N/A   Clear
5:53 AM 69.1 °F - 55.0 °F 61% 29.69 in 10.0 mi Calm Calm - N/A   Clear
6:53 AM 68.0 °F - 55.9 °F 65% 29.71 in 8.0 mi Calm Calm - N/A   Clear
7:53 AM 73.0 °F - 55.0 °F 53% 29.72 in 9.0 mi Calm Calm - N/A   Clear
8:53 AM 79.0 °F - 54.0 °F 42% 29.72 in 9.0 mi Calm Calm - N/A   Clear
9:53 AM 82.0 °F - 52.0 °F 35% 29.73 in 10.0 mi SW 3.5 mph - N/A   Clear
10:53 AM 88.0 °F - 52.0 °F 29% 29.71 in 8.0 mi West 4.6 mph - N/A   Clear
11:53 AM 91.9 °F - 46.9 °F 21% 29.70 in 10.0 mi Calm Calm - N/A   Partly Cloudy
12:53 PM 98.1 °F - 46.0 °F 17% 29.68 in 10.0 mi West 8.1 mph - N/A   Clear
1:53 PM 100.0 °F - 46.0 °F 16% 29.66 in 10.0 mi WSW 9.2 mph - N/A   Partly Cloudy
2:53 PM 100.9 °F - 46.0 °F 15% 29.65 in 10.0 mi West 11.5 mph 19.6 mph N/A   Partly Cloudy
3:53 PM 99.0 °F - 48.0 °F 18% 29.64 in 10.0 mi West 15.0 mph - N/A   Partly Cloudy
4:53 PM 96.1 °F 93.5 °F 53.1 °F 23% 29.64 in 10.0 mi West 17.3 mph - N/A   Partly Cloudy
5:53 PM 91.9 °F - 51.1 °F 25% 29.66 in 10.0 mi WSW 11.5 mph 19.6 mph N/A   Clear
6:53 PM 87.1 °F - 52.0 °F 30% 29.67 in 10.0 mi WSW 9.2 mph - N/A   Clear
7:53 PM 82.9 °F - 52.0 °F 34% 29.69 in 10.0 mi WSW 8.1 mph - N/A   Clear
8:53 PM 80.1 °F 79.9 °F 53.1 °F 39% 29.72 in 10.0 mi SW 5.8 mph - N/A   Clear
9:53 PM 77.0 °F - 52.0 °F 42% 29.73 in 10.0 mi WNW 3.5 mph - N/A   Clear
10:53 PM 75.9 °F - 52.0 °F 43% 29.74 in 10.0 mi NNW 3.5 mph - N/A   Clear
11:53 PM 75.0 °F - 53.1 °F 46% 29.74 in 10.0 mi Calm Calm - N/A   Clear